Home > Weather > San Francisco > Past weeks

Flag for USA Past Weather in San Francisco, California, USA — Yesterday and Last 2 Weeks

Now
61 °F

Scattered clouds.


Feels Like: 61 °F
Forecast: 58 / 67 °F
Wind: 14 mph from West

Location: San Francisco International Airport

Current Time: Aug 25, 2016 at 8:27:57 PM

Latest Report: Aug 25, 2016 at 7:56 PM


Visibility: 10 mi

Pressure: 29.89 "Hg

Humidity: 75%

Dew Point: 53 °F

Location of San FranciscoLocation

Past Weather in San Francisco — Graph

°F

San Francisco Temperature Yesterday

Maximum temperature yesterday: 67 °F (at 1:56 PM)
Minimum temperature yesterday: 58 °F (at 12:56 AM)
Average temperature yesterday: 61 °F

High & Low Weather Summary for the Past Weeks

 TemperatureHumidityPressure
High72 °F (Aug 11, 2:56 PM)93% (Aug 13, 4:56 AM)30.11 "Hg (Aug 13, 4:56 AM)
Low53 °F (Aug 13, 4:56 AM)52% (Aug 23, 2:56 PM)29.79 "Hg (Aug 17, 5:56 PM)
Average61 °F77%29.94 "Hg
* Reported Aug 10 6:56 PM — Aug 25 6:56 PM, San Francisco, Weather by CustomWeather, © 2016

Note: Actual official high and low records may vary slightly from our data, if they occured in-between our weather recording intervals... More about our weather records

Advertising

San Francisco Weather History for the Previous 24 Hours

Scroll right to see more
 ConditionsComfort  
Time TempWeatherWind HumidityBarometerVisibility
6:56 PM
Thu, Aug 25
63 °FPassing clouds.16 mph73%29.88 "Hg10 mi
5:56 PM65 °FPassing clouds.16 mph68%29.88 "Hg10 mi
4:56 PM67 °FPassing clouds.18 mph63%29.88 "Hg10 mi
3:56 PM69 °FPassing clouds.18 mph59%29.89 "Hg10 mi
2:56 PM69 °FPassing clouds.17 mph59%29.90 "Hg10 mi
1:56 PM69 °FPassing clouds.17 mph57%29.92 "Hg10 mi
12:56 PM67 °FPassing clouds.16 mph61%29.94 "Hg10 mi
12:03 PM65 °FPassing clouds.16 mph68%29.95 "Hg10 mi
11:56 AM64 °FPartly sunny.15 mph70%29.96 "Hg9 mi
10:56 AM61 °FPartly sunny.9 mph75%29.97 "Hg10 mi
9:56 AM58 °FLow clouds.5 mph81%29.98 "Hg10 mi
8:56 AM57 °FLow clouds.7 mph83%29.98 "Hg9 mi
7:56 AM56 °FLow clouds.5 mph87%29.98 "Hg9 mi
6:56 AM56 °FLow clouds.9 mph84%29.97 "Hg10 mi
5:56 AM56 °FMostly cloudy.8 mph87%29.96 "Hg10 mi
4:56 AM56 °FMostly cloudy.7 mph84%29.96 "Hg10 mi
3:56 AM56 °FMostly cloudy.12 mph84%29.96 "Hg10 mi
2:56 AM57 °FMostly cloudy.9 mph83%29.97 "Hg10 mi
1:56 AM57 °FPassing clouds.8 mph83%29.97 "Hg10 mi
12:56 AM57 °FPassing clouds.10 mph87%29.98 "Hg10 mi
11:56 PM
Wed, Aug 24
58 °FPassing clouds.13 mph84%29.99 "Hg10 mi
10:56 PM58 °FPassing clouds.12 mph84%30.00 "Hg10 mi
9:56 PM58 °FPassing clouds.13 mph84%30.00 "Hg10 mi
8:56 PM58 °FPassing clouds.13 mph84%30.00 "Hg10 mi
Weather by CustomWeather, © 2016

See weather overviewHow to use our weather pages